New Ulm, MN

9:35 AM CDT on April 23, 2017 (GMT -0500)
New Ulm Municipal

Weather History for KULM - November, 2012

Change the Weather History Date:

Thursday, November 8, 2012

  Actual Average Record
Temperature  
Mean Temperature 46 °F -  
Max Temperature 57 °F 46 °F 82 °F (2006)
Min Temperature 35 °F 27 °F -2 °F (1991)
Degree Days  
Heating Degree Days 19    
Moisture  
Dew Point 36 °F    
Average Humidity 72    
Maximum Humidity 87    
Minimum Humidity 47    
Precipitation  
Precipitation 0.00 in - - ()
Sea Level Pressure  
Sea Level Pressure 29.94 in    
Wind  
Wind Speed 11 mph (SSE)    
Max Wind Speed 18 mph    
Max Gust Speed 25 mph    
Visibility 10 miles    
Events      
Averages and records for this station are not official NWS values.
T = Trace of Precipitation, MM = Missing Value Source: NWS Daily Summary

Daily Weather History Graph

Daily Weather History Graph

Search for Another Location

Airport or City:

Trip Planner

Search our weather history database for the weather conditions in past years. The results will help you decide how hot, cold, wet, or windy it might be!

Date:

Astronomy

Nov. 08, 2012 Rise Set
Actual Time 7:05 AM CST 4:57 PM CST
Civil Twilight 6:34 AM CST 5:28 PM CST
Nautical Twilight 5:59 AM CST 6:03 PM CST
Astronomical Twilight 5:25 AM CST 6:37 PM CST
Moon 12:48 AM CST (11/8) 1:50 PM CST (11/8)
Length of Visible Light 10h 54m
Length of Day
9h 52m
Waning Crescent, 32% of the Moon is Illuminated
Nov 8
Waning Crescent
Nov 13
New
Nov 20
First Quarter
Nov 28
Full
Dec 6
Last Quarter

Hourly Weather History & Observations

Time (CST) Temp. Windchill Dew Point Humidity Pressure Visibility Wind Dir Wind Speed Gust Speed Precip Events Conditions
12:13 AM 37.4 °F 29.8 °F 32.0 °F 81% 30.02 in 10.0 mi SSE 11.5 mph - N/A   Clear
12:33 AM 37.4 °F 29.3 °F 32.0 °F 81% 30.01 in 10.0 mi SSE 12.7 mph - N/A   Clear
12:52 AM 37.4 °F 28.5 °F 32.0 °F 81% 30.00 in 10.0 mi SSE 15.0 mph - N/A   Clear
1:13 AM 37.4 °F 28.5 °F 32.0 °F 81% 30.00 in 10.0 mi SSE 15.0 mph 19.6 mph N/A   Clear
1:33 AM 37.4 °F 28.9 °F 32.0 °F 81% 29.99 in 10.0 mi SSE 13.8 mph 18.4 mph N/A   Clear
1:52 AM 37.4 °F 28.9 °F 32.0 °F 81% 29.99 in 10.0 mi SSE 13.8 mph - N/A   Clear
2:33 AM 37.4 °F 28.2 °F 32.0 °F 81% 29.98 in 10.0 mi SSE 16.1 mph - N/A   Clear
2:53 AM 37.4 °F 28.5 °F 32.0 °F 81% 29.97 in 10.0 mi SSE 15.0 mph - N/A   Clear
3:13 AM 37.4 °F 28.9 °F 32.0 °F 81% 29.97 in 10.0 mi SSE 13.8 mph 18.4 mph N/A   Clear
3:33 AM 37.4 °F 28.9 °F 32.0 °F 81% 29.96 in 10.0 mi SSE 13.8 mph - N/A   Clear
3:53 AM 35.6 °F 26.6 °F 32.0 °F 87% 29.94 in 10.0 mi SSE 13.8 mph - N/A   Clear
4:13 AM 35.6 °F 26.6 °F 32.0 °F 87% 29.93 in 10.0 mi SSE 13.8 mph 19.6 mph N/A   Clear
4:33 AM 37.4 °F 27.5 °F 32.0 °F 81% 29.93 in 10.0 mi SSE 18.4 mph 21.9 mph N/A   Clear
4:53 AM 37.4 °F 27.5 °F 33.8 °F 87% 29.92 in 10.0 mi SSE 18.4 mph 24.2 mph N/A   Clear
5:13 AM 37.4 °F 28.2 °F 33.8 °F 87% 29.91 in 10.0 mi SSE 16.1 mph 25.3 mph N/A   Clear
5:32 AM 37.4 °F 28.2 °F 33.8 °F 87% 29.91 in 10.0 mi SSE 16.1 mph - N/A   Clear
5:53 AM 37.4 °F 27.8 °F 33.8 °F 87% 29.91 in 10.0 mi SSE 17.3 mph 20.7 mph N/A   Clear
6:13 AM 37.4 °F 27.8 °F 32.0 °F 81% 29.91 in 10.0 mi SSE 17.3 mph - N/A   Clear
6:32 AM 37.4 °F 28.9 °F 33.8 °F 87% 29.91 in 10.0 mi SSE 13.8 mph - N/A   Clear
6:53 AM 35.6 °F 26.2 °F 32.0 °F 87% 29.91 in 10.0 mi SSE 15.0 mph - N/A   Clear
7:13 AM 35.6 °F 26.6 °F 32.0 °F 87% 29.92 in 10.0 mi SSE 13.8 mph - N/A   Clear
7:32 AM 35.6 °F 26.6 °F 32.0 °F 87% 29.92 in 10.0 mi SSE 13.8 mph - N/A   Clear
7:53 AM 37.4 °F 28.2 °F 33.8 °F 87% 29.92 in 10.0 mi SSE 16.1 mph - N/A   Clear
8:13 AM 37.4 °F 28.9 °F 33.8 °F 87% 29.93 in 10.0 mi SSE 13.8 mph - N/A   Clear
8:32 AM 39.2 °F 31.2 °F 33.8 °F 81% 29.93 in 10.0 mi South 13.8 mph - N/A   Clear
8:53 AM 39.2 °F 31.6 °F 35.6 °F 87% 29.93 in 10.0 mi South 12.7 mph - N/A   Clear
9:13 AM 42.8 °F 36.2 °F 35.6 °F 76% 29.93 in 10.0 mi South 12.7 mph - N/A   Clear
9:32 AM 42.8 °F 35.1 °F 35.6 °F 76% 29.93 in 10.0 mi South 16.1 mph - N/A   Clear
9:53 AM 44.6 °F 37.8 °F 37.4 °F 76% 29.92 in 10.0 mi South 15.0 mph - N/A   Clear
10:13 AM 46.4 °F 39.5 °F 37.4 °F 71% 29.92 in 10.0 mi South 17.3 mph - N/A   Clear
10:32 AM 48.2 °F - 37.4 °F 66% 29.92 in 10.0 mi South 15.0 mph 21.9 mph N/A   Clear
10:53 AM 50.0 °F - 37.4 °F 62% 29.92 in 10.0 mi South 16.1 mph - N/A   Clear
11:13 AM 50.0 °F - 37.4 °F 62% 29.92 in 10.0 mi SSW 10.4 mph - N/A   Clear
11:32 AM 51.8 °F - 39.2 °F 62% 29.92 in 10.0 mi SSW 12.7 mph - N/A   Clear
11:53 AM 53.6 °F - 39.2 °F 58% 29.91 in 10.0 mi SW 9.2 mph - N/A   Clear
12:12 PM 53.6 °F - 37.4 °F 54% 29.90 in 10.0 mi SSW 12.7 mph - N/A   Clear
12:33 PM 53.6 °F - 37.4 °F 54% 29.91 in 10.0 mi WSW 9.2 mph - N/A   Clear
12:53 PM 55.4 °F - 37.4 °F 51% 29.90 in 10.0 mi SW 8.1 mph - N/A   Clear
1:12 PM 55.4 °F - 37.4 °F 51% 29.90 in 10.0 mi SW 5.8 mph - N/A   Clear
1:33 PM 55.4 °F - 37.4 °F 51% 29.90 in 10.0 mi SSW 5.8 mph - N/A   Clear
1:53 PM 55.4 °F - 37.4 °F 51% 29.90 in 10.0 mi SSW 6.9 mph - N/A   Clear
2:12 PM 55.4 °F - 37.4 °F 51% 29.90 in 10.0 mi SW 4.6 mph - N/A   Clear
2:33 PM 57.2 °F - 37.4 °F 48% 29.90 in 10.0 mi Calm Calm - N/A   Clear
2:53 PM 55.4 °F - 35.6 °F 47% 29.91 in 10.0 mi Calm Calm - N/A   Clear
3:12 PM 57.2 °F - 37.4 °F 48% 29.91 in 10.0 mi West 6.9 mph - N/A   Clear
3:33 PM 55.4 °F - 35.6 °F 47% 29.92 in 10.0 mi Calm Calm - N/A   Clear
3:53 PM 55.4 °F - 37.4 °F 51% 29.92 in 10.0 mi Calm Calm - N/A   Clear
4:12 PM 55.4 °F - 37.4 °F 51% 29.92 in 10.0 mi NW 3.5 mph - N/A   Clear
4:33 PM 53.6 °F - 39.2 °F 58% 29.93 in 10.0 mi NW 3.5 mph - N/A   Clear
4:53 PM 53.6 °F - 39.2 °F 58% 29.93 in 10.0 mi NW 3.5 mph - N/A   Clear
5:12 PM 51.8 °F - 39.2 °F 62% 29.94 in 10.0 mi NNW 4.6 mph - N/A   Clear
5:33 PM 51.8 °F - 37.4 °F 58% 29.94 in 10.0 mi Calm Calm - N/A   Clear
5:53 PM 51.8 °F - 37.4 °F 58% 29.95 in 10.0 mi Calm Calm - N/A   Clear
6:12 PM 48.2 °F - 39.2 °F 71% 29.95 in 10.0 mi North 4.6 mph - N/A   Clear
6:33 PM 48.2 °F - 39.2 °F 71% 29.96 in 10.0 mi North 5.8 mph - N/A   Clear
6:53 PM 48.2 °F - 39.2 °F 71% 29.96 in 10.0 mi NNE 4.6 mph - N/A   Clear
7:13 PM 46.4 °F 44.3 °F 37.4 °F 71% 29.96 in 10.0 mi NE 4.6 mph - N/A   Clear
7:33 PM 46.4 °F 43.5 °F 37.4 °F 71% 29.96 in 10.0 mi NE 5.8 mph - N/A   Clear
7:52 PM 46.4 °F 45.2 °F 37.4 °F 71% 29.96 in 10.0 mi NE 3.5 mph - N/A   Clear
8:13 PM 44.6 °F 43.1 °F 37.4 °F 76% 29.97 in 10.0 mi NE 3.5 mph - N/A   Clear
8:33 PM 44.6 °F 42.2 °F 37.4 °F 76% 29.97 in 10.0 mi NNE 4.6 mph - N/A   Clear
8:52 PM 44.6 °F 43.1 °F 37.4 °F 76% 29.97 in 10.0 mi NNE 3.5 mph - N/A   Clear
9:13 PM 44.6 °F 42.2 °F 37.4 °F 76% 29.98 in 10.0 mi NE 4.6 mph - N/A   Clear
9:33 PM 44.6 °F 41.4 °F 37.4 °F 76% 29.98 in 10.0 mi NE 5.8 mph - N/A   Clear
9:52 PM 42.8 °F 38.6 °F 37.4 °F 81% 29.98 in 10.0 mi NE 6.9 mph - N/A   Clear
10:13 PM 44.6 °F 39.7 °F 37.4 °F 76% 29.98 in 10.0 mi NE 9.2 mph - N/A   Clear
10:33 PM 44.6 °F 41.4 °F 37.4 °F 76% 29.98 in 10.0 mi ENE 5.8 mph - N/A   Clear
10:52 PM 44.6 °F 41.4 °F 37.4 °F 76% 29.98 in 10.0 mi ENE 5.8 mph - N/A   Clear
11:13 PM 44.6 °F 41.4 °F 37.4 °F 76% 29.98 in 10.0 mi ENE 5.8 mph - N/A   Clear
11:33 PM 42.8 °F 38.0 °F 35.6 °F 76% 29.98 in 10.0 mi NE 8.1 mph - N/A   Clear
11:52 PM 42.8 °F 38.0 °F 35.6 °F 76% 29.97 in 10.0 mi NNE 8.1 mph - N/A   Clear